Daytona Beach, FL

12:55 AM EDT on September 20, 2018 (GMT -0400)
Daytona Beach International

Weather History for KDAB - July, 2018

Change the Weather History Date:

Thursday, July 12, 2018

  Actual Average Record
Temperature  
Mean Temperature 82 °F 82 °F  
Max Temperature 90 °F 90 °F 100 °F (1980)
Min Temperature 73 °F 73 °F 65 °F (1938)
Degree Days  
Heating Degree Days 0 0  
Month to date heating degree days 0 0  
Since 1 June heating degree days 0 0  
Since 1 July heating degree days 0 0  
Cooling Degree Days 17 17  
Month to date cooling degree days 194 193  
Year to date cooling degree days 1383 1241  
Since 1 June cooling degree days 671 640  
Growing Degree Days 32 (Base 50)    
Moisture  
Dew Point 73 °F    
Average Humidity 78    
Maximum Humidity 100    
Minimum Humidity 55    
Precipitation  
Precipitation 0.00 in 0.20 in 1.88 in (1979)
Month to date precipitation 1.53 2.30  
Year to date precipitation 34.46 23.20  
Sea Level Pressure  
Sea Level Pressure 30.08 in    
Wind  
Wind Speed 3 mph (ESE)    
Max Wind Speed 12 mph    
Max Gust Speed 15 mph    
Visibility 10 miles    
Events      
T = Trace of Precipitation, MM = Missing Value Source: NWS Daily Summary

Daily Weather History Graph

Daily Weather History Graph

Search for Another Location

Airport or City:

Astronomy

Jul. 12, 2018 Rise Set
Actual Time 6:33 AM EDT 8:25 PM EDT
Civil Twilight 6:06 AM EDT 8:52 PM EDT
Nautical Twilight 5:34 AM EDT 9:24 PM EDT
Astronomical Twilight 5:00 AM EDT 9:58 PM EDT
Moon 5:58 AM EDT (7/12) 8:09 PM EDT (7/12)
Length of Visible Light 14h 45m
Length of Day
13h 52m
Waning Crescent, 0% of the Moon is Illuminated
Jul 12
Waning Crescent
Jul 12
New
Jul 19
First Quarter
Jul 27
Full
Aug 4
Last Quarter

Hourly Weather History & Observations

Time (EDT) Temp. Heat Index Dew Point Humidity Pressure Visibility Wind Dir Wind Speed Gust Speed Precip Events Conditions
12:53 AM 77.0 °F - 72.0 °F 84% 30.06 in 10.0 mi Calm Calm - N/A   Partly Cloudy
1:53 AM 75.0 °F - 72.0 °F 90% 30.05 in 10.0 mi Calm Calm - N/A   Partly Cloudy
2:53 AM 75.0 °F - 72.0 °F 90% 30.04 in 10.0 mi Calm Calm - N/A   Partly Cloudy
3:53 AM 73.9 °F - 72.0 °F 93% 30.04 in 10.0 mi Calm Calm - N/A   Clear
4:53 AM 73.0 °F - 73.0 °F 100% 30.04 in 10.0 mi Calm Calm - N/A   Clear
5:53 AM 73.0 °F - 73.0 °F 100% 30.04 in 10.0 mi Calm Calm - N/A   Scattered Clouds
6:53 AM 73.9 °F - 73.0 °F 97% 30.05 in 10.0 mi Calm Calm - N/A   Scattered Clouds
7:53 AM 77.0 °F - 75.0 °F 94% 30.07 in 10.0 mi Calm Calm - N/A   Scattered Clouds
8:53 AM 82.0 °F 87.9 °F 73.9 °F 76% 30.09 in 10.0 mi Calm Calm - N/A   Scattered Clouds
9:53 AM 84.0 °F 91.9 °F 75.0 °F 74% 30.10 in 10.0 mi Calm Calm - N/A   Partly Cloudy
10:53 AM 87.1 °F 93.6 °F 72.0 °F 61% 30.12 in 10.0 mi Calm Calm - N/A   Partly Cloudy
11:53 AM 88.0 °F 96.5 °F 73.9 °F 63% 30.13 in 10.0 mi ENE 6.9 mph - N/A   Partly Cloudy
12:53 PM 89.1 °F 96.0 °F 72.0 °F 57% 30.12 in 10.0 mi Variable 4.6 mph - N/A   Partly Cloudy
1:53 PM 90.0 °F 96.9 °F 72.0 °F 55% 30.11 in 10.0 mi ENE 6.9 mph - N/A   Partly Cloudy
2:53 PM 90.0 °F 96.9 °F 72.0 °F 55% 30.10 in 10.0 mi East 9.2 mph - N/A   Partly Cloudy
3:53 PM 89.1 °F 96.0 °F 72.0 °F 57% 30.09 in 10.0 mi East 9.2 mph - N/A   Scattered Clouds
4:53 PM 88.0 °F 94.7 °F 72.0 °F 59% 30.07 in 10.0 mi East 8.1 mph - N/A   Partly Cloudy
5:53 PM 87.1 °F 92.8 °F 71.1 °F 59% 30.06 in 10.0 mi East 8.1 mph - N/A   Partly Cloudy
6:53 PM 87.1 °F 92.0 °F 70.0 °F 57% 30.06 in 10.0 mi East 6.9 mph - N/A   Partly Cloudy
7:53 PM 84.0 °F 89.0 °F 71.1 °F 65% 30.07 in 10.0 mi SE 4.6 mph - N/A   Partly Cloudy
8:53 PM 81.0 °F 86.2 °F 73.9 °F 79% 30.09 in 10.0 mi SSW 5.8 mph - N/A   Scattered Clouds
9:53 PM 80.1 °F 84.2 °F 73.0 °F 79% 30.12 in 10.0 mi SW 4.6 mph - N/A   Clear
10:53 PM 79.0 °F - 73.0 °F 82% 30.12 in 10.0 mi Calm Calm - N/A   Clear
11:53 PM 78.1 °F - 73.0 °F 84% 30.13 in 10.0 mi Calm Calm - N/A   Partly Cloudy